Location: York
(31.8935°S, 116.7682°E)
Time: 21:54:39
(UTC+08:00)

AAUSAT CUBESAT 2 - Visible Passes

Search period start: 03 August 2021 00:00
Search period end: 13 August 2021 00:00
Orbit: 571 x 589 km, 97.5° (Epoch: 02 August)

Date Brightness Start Highest point End Pass type
(mag) Time Alt. Az. Time Alt. Az. Time Alt. Az.
03 Aug ? 05:20:56 10° NNW 05:22:42 23° NNW 05:22:42 23° NNW visible
03 Aug ? 18:44:02 10° SW 18:45:42 12° WSW 18:47:23 10° W visible
04 Aug ? 05:26:05 10° NNW 05:27:51 22° NW 05:27:51 22° NW visible
04 Aug ? 18:49:53 10° SW 18:50:40 10° WSW 18:51:27 10° WSW visible
05 Aug ? 05:31:15 10° NNW 05:33:01 21° NW 05:33:01 21° NW visible
06 Aug ? 04:01:46 10° ENE 04:01:50 10° ENE 04:01:50 10° ENE visible
06 Aug ? 05:36:28 10° NNW 05:38:10 19° NW 05:38:10 19° NW visible
07 Aug ? 04:06:30 10° ENE 04:06:59 12° ENE 04:06:59 12° ENE visible
07 Aug ? 05:41:42 10° NNW 05:43:20 18° NW 05:43:20 18° NW visible
08 Aug ? 04:11:16 10° NE 04:12:10 15° ENE 04:12:10 15° ENE visible
08 Aug ? 05:47:00 10° NW 05:48:30 16° WNW 05:48:30 16° WNW visible
09 Aug ? 04:16:04 10° NE 04:17:20 17° ENE 04:17:20 17° ENE visible
09 Aug ? 05:52:21 10° NW 05:53:41 15° WNW 05:53:41 15° WNW visible
10 Aug ? 04:20:54 10° NE 04:22:31 21° ENE 04:22:31 21° ENE visible
10 Aug ? 05:57:47 10° NW 05:58:53 13° WNW 05:58:53 13° WNW visible
11 Aug ? 04:25:46 10° NE 04:27:43 24° NE 04:27:43 24° NE visible
11 Aug ? 06:03:22 10° WNW 06:04:04 11° WNW 06:04:04 11° WNW visible
12 Aug ? 04:30:38 10° NNE 04:32:56 29° NE 04:32:56 29° NE visible
